QPF
0.04 0.05 0.04 0.04 0.05 0.05 0.04 0.04 0.04 0.06 0.09 0.09 0.10 0.10 0.13 0.17 0.18 0.17 0.17 0.14 0.09 0.06 0.04 0.03 0.02 0.01 0.01 0.01 0.01 0.01 0.01 0.02 0.02 0.02 0.03 0.03 0.03 0.04 0.04 0.04 0.03 0.03 0.03
0.04 0.06 0.05 0.04 0.05 0.06 0.05 0.04 0.03 0.03 0.05 0.06 0.06 0.06 0.07 0.09 0.10 0.11 0.11 0.12 0.12 0.10 0.06 0.04 0.03 0.02 0.02 0.01 0.01 0.01 0.01 0.01 0.01 0.01 0.01 0.02 0.04 0.05 0.04 0.05 0.05 0.04 0.03
0.03 0.06 0.07 0.07 0.07 0.07 0.05 0.04 0.04 0.04 0.05 0.05 0.06 0.06 0.06 0.06 0.06 0.07 0.06 0.06 0.06 0.06 0.06 0.06 0.05 0.04 0.04 0.03 0.02 0.02 0.01 0.01 0.01 0.01 0.01 0.01 0.02 0.03 0.04 0.05 0.04 0.04 0.04
0.02 0.04 0.05 0.06 0.07 0.07 0.06 0.06 0.05 0.04 0.06 0.08 0.07 0.07 0.07 0.06 0.06 0.06 0.05 0.06 0.04 0.03 0.04 0.04 0.04 0.04 0.04 0.04 0.04 0.03 0.03 0.02 0.02 0.02 0.02 0.02 0.01 0.01 0.02 0.03 0.04 0.03 0.03
0.01 0.02 0.03 0.04 0.04 0.05 0.06 0.06 0.05 0.05 0.06 0.08 0.09 0.08 0.09 0.08 0.08 0.08 0.07 0.06 0.05 0.04 0.03 0.03 0.03 0.03 0.04 0.03 0.04 0.04 0.04 0.04 0.03 0.03 0.02 0.02 0.01 0.01 0.01 0.01 0.02 0.03 0.03
0.01 0.02 0.02 0.02 0.02 0.03 0.04 0.06 0.06 0.06 0.06 0.08 0.10 0.09 0.09 0.09 0.11 0.10 0.08 0.06 0.05 0.04 0.04 0.03 0.03 0.03 0.03 0.03 0.03 0.03 0.04 0.04 0.04 0.03 0.03 0.02 0.01 0.01 0.01 0.01 0.01 0.01 0.03
0.01 0.02 0.02 0.02 0.02 0.02 0.04 0.05 0.06 0.06 0.06 0.07 0.08 0.09 0.09 0.09 0.09 0.09 0.08 0.06 0.06 0.05 0.04 0.03 0.03 0.03 0.03 0.03 0.03 0.03 0.03 0.03 0.03 0.03 0.03 0.02 0.01 0.01 0.01 0.01 0.01 0.01 0.01
0.02 0.02 0.02 0.02 0.02 0.02 0.03 0.04 0.05 0.05 0.06 0.07 0.08 0.08 0.09 0.09 0.09 0.09 0.08 0.07 0.07 0.05 0.04 0.03 0.03 0.02 0.02 0.03 0.03 0.03 0.03 0.02 0.02 0.02 0.01 0.01 0.01 0.02 0.02 0.02 0.02 0.02 0.01
0.02 0.03 0.02 0.02 0.02 0.02 0.04 0.04 0.04 0.05 0.05 0.06 0.07 0.08 0.08 0.09 0.09 0.09 0.09 0.08 0.07 0.07 0.05 0.04 0.02 0.02 0.02 0.03 0.03 0.03 0.03 0.03 0.03 0.03 0.03 0.02 0.02 0.03 0.03 0.03 0.04 0.04 0.03
0.02 0.04 0.03 0.02 0.02 0.03 0.04 0.05 0.05 0.05 0.05 0.05 0.05 0.06 0.06 0.06 0.07 0.08 0.07 0.07 0.06 0.06 0.05 0.04 0.03 0.02 0.03 0.02 0.02 0.03 0.04 0.04 0.03 0.03 0.03 0.02 0.02 0.03 0.04 0.03 0.03 0.03 0.03
0.03 0.04 0.03 0.02 0.02 0.03 0.04 0.05 0.05 0.04 0.04 0.05 0.05 0.05 0.04 0.04 0.05 0.06 0.05 0.06 0.05 0.04 0.04 0.03 0.03 0.03 0.03 0.02 0.02 0.02 0.03 0.04 0.03 0.03 0.03 0.03 0.02 0.02 0.03 0.03 0.03 0.04 0.04
0.03 0.03 0.03 0.02 0.02 0.02 0.03 0.03 0.04 0.04 0.05 0.05 0.04 0.04 0.03 0.03 0.04 0.04 0.04 0.05 0.05 0.03 0.03 0.02 0.02 0.03 0.03 0.03 0.02 0.02 0.02 0.03 0.03 0.04 0.04 0.04 0.04 0.03 0.03 0.03 0.03 0.03 0.03
0.03 0.03 0.03 0.02 0.02 0.02 0.02 0.03 0.03 0.04 0.05 0.04 0.04 0.04 0.04 0.03 0.03 0.04 0.03 0.04 0.04 0.03 0.03 0.03 0.02 0.02 0.02 0.02 0.02 0.02 0.02 0.02 0.03 0.04 0.04 0.04 0.04 0.04 0.03 0.03 0.03 0.03 0.04
0.03 0.03 0.04 0.03 0.02 0.02 0.03 0.03 0.04 0.04 0.04 0.04 0.04 0.03 0.03 0.02 0.02 0.03 0.03 0.03 0.03 0.03 0.03 0.02 0.02 0.02 0.02 0.02 0.02 0.02 0.02 0.02 0.03 0.03 0.04 0.04 0.04 0.05 0.05 0.05 0.04 0.03 0.04
0.03 0.03 0.04 0.04 0.03 0.03 0.04 0.04 0.04 0.04 0.04 0.05 0.04 0.04 0.04 0.03 0.03 0.04 0.04 0.04 0.03 0.03 0.02 0.02 0.02 0.02 0.02 0.03 0.03 0.03 0.03 0.03 0.03 0.04 0.04 0.04 0.04 0.04 0.05 0.05 0.05 0.05 0.04
0.02 0.02 0.03 0.04 0.04 0.04 0.04 0.04 0.03 0.03 0.03 0.03 0.04 0.04 0.04 0.04 0.04 0.04 0.04 0.04 0.04 0.03 0.03 0.02 0.02 0.02 0.02 0.03 0.03 0.04 0.03 0.03 0.03 0.04 0.04 0.04 0.04 0.04 0.05 0.05 0.05 0.05 0.06
0.03 0.03 0.02 0.02 0.03 0.03 0.04 0.04 0.04 0.03 0.03 0.02 0.03 0.03 0.04 0.05 0.05 0.04 0.04 0.04 0.04 0.04 0.04 0.03 0.03 0.02 0.02 0.02 0.03 0.03 0.04 0.03 0.03 0.04 0.04 0.04 0.04 0.05 0.04 0.04 0.04 0.04 0.05
0.03 0.03 0.02 0.03 0.03 0.03 0.04 0.04 0.04 0.03 0.03 0.02 0.02 0.03 0.03 0.04 0.05 0.05 0.05 0.05 0.05 0.05 0.05 0.05 0.04 0.03 0.03 0.03 0.03 0.03 0.04 0.04 0.04 0.04 0.04 0.04 0.04 0.04 0.04 0.04 0.04 0.03 0.03
0.03 0.03 0.03 0.03 0.03 0.03 0.03 0.04 0.04 0.03 0.03 0.02 0.02 0.03 0.03 0.04 0.04 0.05 0.05 0.05 0.06 0.06 0.05 0.05 0.04 0.04 0.04 0.03 0.03 0.03 0.03 0.03 0.04 0.03 0.04 0.04 0.04 0.04 0.04 0.04 0.04 0.03 0.03
0.03 0.03 0.04 0.04 0.04 0.04 0.03 0.04 0.04 0.04 0.03 0.03 0.03 0.03 0.03 0.03 0.03 0.04 0.04 0.04 0.05 0.04 0.04 0.04 0.03 0.04 0.04 0.04 0.04 0.04 0.04 0.03 0.03 0.03 0.03 0.03 0.03 0.03 0.03 0.04 0.03 0.03 0.03
0.03 0.03 0.03 0.03 0.04 0.04 0.04 0.04 0.05 0.05 0.04 0.04 0.04 0.04 0.04 0.04 0.03 0.04 0.04 0.04 0.04 0.04 0.03 0.03 0.03 0.03 0.03 0.03 0.03 0.03 0.03 0.03 0.03 0.03 0.03 0.03 0.03 0.03 0.02 0.03 0.02 0.02 0.02
0.03 0.03 0.03 0.03 0.03 0.04 0.05 0.05 0.05 0.05 0.05 0.05 0.04 0.04 0.05 0.04 0.05 0.05 0.05 0.05 0.04 0.04 0.04 0.04 0.03 0.03 0.03 0.03 0.03 0.03 0.03 0.03 0.03 0.03 0.03 0.02 0.02 0.02 0.02 0.03 0.02 0.03 0.03
0.03 0.03 0.02 0.02 0.03 0.04 0.04 0.05 0.05 0.06 0.06 0.06 0.06 0.05 0.05 0.05 0.05 0.04 0.04 0.04 0.04 0.04 0.03 0.03 0.03 0.03 0.03 0.03 0.03 0.03 0.03 0.03 0.03 0.03 0.02 0.02 0.02 0.02 0.02 0.03 0.03 0.03 0.02
0.03 0.03 0.03 0.02 0.03 0.04 0.04 0.05 0.04 0.04 0.05 0.05 0.05 0.05 0.05 0.05 0.05 0.05 0.05 0.04 0.04 0.04 0.03 0.03 0.03 0.03 0.03 0.03 0.03 0.03 0.03 0.03 0.03 0.03 0.03 0.03 0.03 0.02 0.02 0.02 0.02 0.02 0.02
0.03 0.03 0.03 0.03 0.03 0.03 0.03 0.03 0.03 0.04 0.04 0.04 0.04 0.04 0.04 0.04 0.04 0.04 0.04 0.04 0.04 0.04 0.03 0.03 0.03 0.03 0.03 0.03 0.03 0.03 0.03 0.03 0.03 0.04 0.04 0.03 0.03 0.02 0.02 0.02 0.02 0.03 0.02
0.02 0.02 0.02 0.03 0.03 0.03 0.03 0.03 0.03 0.03 0.03 0.03 0.03 0.03 0.03 0.03 0.03 0.03 0.03 0.03 0.03 0.03 0.03 0.03 0.03 0.03 0.03 0.03 0.03 0.02 0.02 0.02 0.02 0.03 0.03 0.03 0.03 0.03 0.02 0.02 0.02 0.02 0.02
MSLP
1034.16 1033.94 1033.68 1033.35 1032.95 1032.49 1031.98 1031.43 1030.86 1030.28 1029.66 1029.01 1028.30 1027.53 1026.70 1025.81 1024.91 1024.01 1023.14 1022.35 1021.62 1020.95 1020.31 1019.65 1018.93 1018.11 1017.16 1016.08 1014.92 1013.73 1012.61 1011.62 1010.84 1010.33 1010.11 1010.16 1010.44 1010.87 1011.39 1011.93 1012.42 1012.84 1013.18
1033.87 1033.65 1033.39 1033.07 1032.70 1032.27 1031.80 1031.30 1030.78 1030.22 1029.62 1028.96 1028.24 1027.44 1026.57 1025.65 1024.71 1023.78 1022.89 1022.08 1021.34 1020.67 1020.02 1019.36 1018.62 1017.78 1016.80 1015.69 1014.49 1013.27 1012.11 1011.09 1010.29 1009.77 1009.54 1009.61 1009.91 1010.38 1010.95 1011.54 1012.10 1012.58 1012.97
1033.65 1033.42 1033.15 1032.83 1032.47 1032.07 1031.63 1031.16 1030.66 1030.12 1029.54 1028.89 1028.16 1027.35 1026.46 1025.53 1024.57 1023.62 1022.73 1021.90 1021.16 1020.48 1019.82 1019.13 1018.37 1017.49 1016.47 1015.32 1014.08 1012.81 1011.61 1010.55 1009.71 1009.16 1008.92 1008.98 1009.29 1009.78 1010.40 1011.04 1011.67 1012.22 1012.69
1033.48 1033.24 1032.96 1032.63 1032.26 1031.86 1031.43 1030.98 1030.50 1029.98 1029.41 1028.77 1028.05 1027.25 1026.36 1025.43 1024.47 1023.53 1022.63 1021.81 1021.06 1020.37 1019.69 1018.98 1018.19 1017.27 1016.21 1015.01 1013.71 1012.39 1011.13 1010.01 1009.12 1008.52 1008.23 1008.26 1008.56 1009.07 1009.71 1010.42 1011.11 1011.76 1012.31
1033.35 1033.09 1032.79 1032.43 1032.04 1031.63 1031.20 1030.75 1030.29 1029.79 1029.24 1028.62 1027.91 1027.12 1026.26 1025.33 1024.39 1023.46 1022.57 1021.76 1021.01 1020.30 1019.61 1018.88 1018.06 1017.10 1016.00 1014.75 1013.40 1012.02 1010.69 1009.50 1008.53 1007.85 1007.50 1007.47 1007.74 1008.24 1008.90 1009.66 1010.43 1011.17 1011.83
1033.21 1032.93 1032.58 1032.20 1031.78 1031.35 1030.92 1030.47 1030.02 1029.54 1029.01 1028.42 1027.74 1026.97 1026.12 1025.22 1024.29 1023.37 1022.49 1021.68 1020.93 1020.22 1019.51 1018.77 1017.92 1016.94 1015.81 1014.53 1013.13 1011.69 1010.29 1009.02 1007.96 1007.19 1006.75 1006.64 1006.85 1007.32 1007.99 1008.79 1009.64 1010.48 1011.26
1033.02 1032.70 1032.32 1031.90 1031.45 1031.01 1030.57 1030.13 1029.70 1029.24 1028.74 1028.17 1027.51 1026.77 1025.94 1025.05 1024.13 1023.22 1022.35 1021.53 1020.78 1020.06 1019.35 1018.59 1017.74 1016.75 1015.61 1014.31 1012.89 1011.41 1009.94 1008.60 1007.45 1006.58 1006.03 1005.84 1005.97 1006.39 1007.05 1007.87 1008.78 1009.72 1010.62
1032.75 1032.39 1031.97 1031.51 1031.05 1030.59 1030.15 1029.73 1029.32 1028.89 1028.42 1027.88 1027.24 1026.52 1025.70 1024.82 1023.90 1022.98 1022.10 1021.28 1020.51 1019.79 1019.07 1018.32 1017.47 1016.50 1015.37 1014.08 1012.66 1011.16 1009.67 1008.27 1007.05 1006.08 1005.43 1005.13 1005.18 1005.54 1006.16 1006.98 1007.93 1008.94 1009.94
1032.38 1031.99 1031.54 1031.06 1030.59 1030.13 1029.70 1029.30 1028.91 1028.51 1028.06 1027.55 1026.93 1026.22 1025.40 1024.52 1023.59 1022.66 1021.76 1020.91 1020.13 1019.40 1018.69 1017.94 1017.13 1016.19 1015.10 1013.85 1012.47 1010.99 1009.50 1008.07 1006.80 1005.76 1005.02 1004.62 1004.57 1004.85 1005.41 1006.20 1007.16 1008.20 1009.26
1031.96 1031.54 1031.07 1030.58 1030.10 1029.65 1029.23 1028.85 1028.49 1028.11 1027.69 1027.19 1026.58 1025.87 1025.06 1024.16 1023.22 1022.27 1021.35 1020.48 1019.69 1018.95 1018.24 1017.52 1016.74 1015.86 1014.83 1013.65 1012.33 1010.91 1009.46 1008.04 1006.74 1005.65 1004.84 1004.35 1004.20 1004.38 1004.86 1005.59 1006.50 1007.54 1008.62
1031.50 1031.07 1030.59 1030.10 1029.62 1029.18 1028.78 1028.41 1028.06 1027.70 1027.29 1026.80 1026.20 1025.49 1024.67 1023.77 1022.82 1021.85 1020.92 1020.04 1019.23 1018.49 1017.80 1017.11 1016.38 1015.56 1014.61 1013.52 1012.30 1010.96 1009.57 1008.19 1006.90 1005.79 1004.92 1004.34 1004.09 1004.16 1004.53 1005.16 1006.00 1006.97 1008.02
1031.04 1030.61 1030.14 1029.65 1029.18 1028.75 1028.35 1027.99 1027.64 1027.28 1026.87 1026.38 1025.78 1025.08 1024.26 1023.37 1022.42 1021.46 1020.52 1019.64 1018.84 1018.11 1017.44 1016.78 1016.10 1015.35 1014.50 1013.50 1012.38 1011.14 1009.84 1008.52 1007.27 1006.15 1005.24 1004.59 1004.24 1004.19 1004.43 1004.93 1005.64 1006.51 1007.48
1030.61 1030.19 1029.73 1029.26 1028.79 1028.36 1027.96 1027.58 1027.22 1026.85 1026.43 1025.93 1025.34 1024.64 1023.85 1022.97 1022.05 1021.11 1020.20 1019.35 1018.57 1017.86 1017.22 1016.60 1015.97 1015.29 1014.52 1013.62 1012.60 1011.47 1010.25 1009.01 1007.80 1006.70 1005.75 1005.04 1004.58 1004.40 1004.50 1004.84 1005.40 1006.13 1006.98
1030.20 1029.81 1029.36 1028.90 1028.44 1027.99 1027.58 1027.18 1026.80 1026.39 1025.95 1025.45 1024.86 1024.19 1023.43 1022.60 1021.72 1020.84 1019.99 1019.18 1018.45 1017.78 1017.17 1016.59 1016.01 1015.38 1014.68 1013.87 1012.95 1011.91 1010.78 1009.61 1008.45 1007.35 1006.39 1005.61 1005.05 1004.74 1004.68 1004.85 1005.24 1005.81 1006.51
1029.80 1029.43 1029.01 1028.55 1028.09 1027.64 1027.20 1026.77 1026.35 1025.92 1025.46 1024.94 1024.37 1023.72 1023.01 1022.25 1021.45 1020.65 1019.87 1019.14 1018.46 1017.84 1017.28 1016.74 1016.20 1015.62 1014.98 1014.23 1013.38 1012.42 1011.37 1010.26 1009.14 1008.05 1007.06 1006.22 1005.56 1005.12 1004.90 1004.91 1005.13 1005.53 1006.08
1029.36 1029.02 1028.62 1028.18 1027.72 1027.26 1026.79 1026.34 1025.88 1025.42 1024.93 1024.42 1023.86 1023.26 1022.61 1021.92 1021.22 1020.52 1019.83 1019.19 1018.58 1018.03 1017.51 1017.01 1016.50 1015.96 1015.35 1014.66 1013.86 1012.95 1011.96 1010.89 1009.80 1008.71 1007.70 1006.79 1006.04 1005.47 1005.11 1004.96 1005.02 1005.27 1005.69
1028.85 1028.53 1028.16 1027.75 1027.30 1026.83 1026.36 1025.88 1025.39 1024.90 1024.41 1023.90 1023.36 1022.80 1022.22 1021.62 1021.02 1020.42 1019.84 1019.28 1018.76 1018.26 1017.79 1017.33 1016.85 1016.33 1015.75 1015.09 1014.32 1013.45 1012.49 1011.46 1010.38 1009.29 1008.23 1007.27 1006.43 1005.75 1005.26 1004.97 1004.89 1005.02 1005.33
1028.22 1027.95 1027.62 1027.24 1026.81 1026.36 1025.89 1025.40 1024.90 1024.41 1023.90 1023.40 1022.89 1022.38 1021.86 1021.35 1020.84 1020.34 1019.85 1019.38 1018.93 1018.50 1018.07 1017.63 1017.18 1016.68 1016.11 1015.46 1014.72 1013.87 1012.93 1011.90 1010.82 1009.72 1008.63 1007.60 1006.68 1005.90 1005.31 1004.91 1004.73 1004.77 1005.01
1027.49 1027.26 1026.98 1026.65 1026.27 1025.85 1025.40 1024.92 1024.43 1023.94 1023.44 1022.95 1022.47 1022.00 1021.54 1021.10 1020.66 1020.25 1019.84 1019.44 1019.06 1018.67 1018.28 1017.87 1017.43 1016.94 1016.39 1015.74 1015.01 1014.17 1013.23 1012.20 1011.10 1009.97 1008.84 1007.75 1006.76 1005.90 1005.23 1004.75 1004.50 1004.49 1004.71
1026.68 1026.50 1026.28 1026.01 1025.69 1025.32 1024.90 1024.46 1023.99 1023.51 1023.03 1022.56 1022.11 1021.67 1021.26 1020.86 1020.49 1020.13 1019.79 1019.45 1019.10 1018.76 1018.39 1018.00 1017.57 1017.09 1016.53 1015.89 1015.14 1014.30 1013.35 1012.30 1011.18 1010.01 1008.83 1007.69 1006.64 1005.72 1004.98 1004.46 1004.18 1004.15 1004.38
1025.85 1025.73 1025.57 1025.36 1025.10 1024.78 1024.42 1024.02 1023.58 1023.13 1022.67 1022.22 1021.79 1021.39 1021.00 1020.65 1020.31 1019.99 1019.69 1019.38 1019.07 1018.74 1018.39 1018.01 1017.58 1017.08 1016.52 1015.86 1015.10 1014.23 1013.25 1012.18 1011.02 1009.80 1008.58 1007.38 1006.28 1005.31 1004.54 1003.99 1003.71 1003.70 1003.97
1025.06 1024.99 1024.88 1024.73 1024.53 1024.27 1023.95 1023.59 1023.20 1022.78 1022.35 1021.92 1021.51 1021.13 1020.77 1020.43 1020.12 1019.83 1019.54 1019.25 1018.95 1018.62 1018.27 1017.88 1017.43 1016.92 1016.33 1015.64 1014.85 1013.94 1012.93 1011.80 1010.59 1009.33 1008.06 1006.82 1005.67 1004.68 1003.88 1003.34 1003.08 1003.11 1003.44
1024.39 1024.34 1024.26 1024.15 1023.98 1023.77 1023.49 1023.17 1022.81 1022.42 1022.02 1021.62 1021.24 1020.87 1020.53 1020.22 1019.92 1019.63 1019.35 1019.06 1018.75 1018.42 1018.05 1017.63 1017.15 1016.60 1015.97 1015.23 1014.39 1013.43 1012.36 1011.18 1009.92 1008.60 1007.28 1006.00 1004.83 1003.82 1003.03 1002.51 1002.28 1002.37 1002.77
1023.84 1023.80 1023.73 1023.62 1023.48 1023.28 1023.03 1022.73 1022.39 1022.03 1021.66 1021.29 1020.94 1020.60 1020.28 1019.98 1019.69 1019.41 1019.13 1018.83 1018.51 1018.15 1017.75 1017.29 1016.76 1016.16 1015.47 1014.67 1013.76 1012.73 1011.59 1010.36 1009.04 1007.68 1006.31 1005.01 1003.83 1002.82 1002.05 1001.56 1001.39 1001.54 1002.02
1023.44 1023.36 1023.27 1023.15 1022.99 1022.79 1022.54 1022.26 1021.94 1021.60 1021.26 1020.92 1020.59 1020.28 1019.99 1019.71 1019.44 1019.17 1018.89 1018.58 1018.24 1017.85 1017.40 1016.89 1016.30 1015.63 1014.87 1013.99 1013.01 1011.91 1010.71 1009.41 1008.05 1006.66 1005.28 1003.97 1002.80 1001.82 1001.08 1000.64 1000.53 1000.74 1001.29
1023.13 1023.01 1022.87 1022.70 1022.51 1022.29 1022.03 1021.75 1021.44 1021.12 1020.81 1020.50 1020.21 1019.93 1019.67 1019.42 1019.17 1018.91 1018.63 1018.31 1017.94 1017.52 1017.03 1016.46 1015.81 1015.07 1014.23 1013.28 1012.23 1011.07 1009.81 1008.47 1007.09 1005.68 1004.31 1003.03 1001.90 1000.97 1000.29 999.91 999.85 1000.12 1000.73
Thickness
5394 5400 5405 5411 5416 5421 5426 5431 5435 5441 5445 5449 5452 5456 5460 5464 5467 5472 5476 5480 5483 5487 5490 5493 5497 5500 5503 5506 5509 5512 5514 5516 5518 5520 5520 5522 5524 5525 5526 5528 5529 5530 5531
5380 5385 5391 5397 5402 5407 5412 5417 5422 5427 5431 5435 5440 5444 5448 5452 5455 5459 5465 5469 5473 5476 5479 5483 5486 5489 5492 5495 5498 5500 5503 5506 5507 5509 5509 5511 5513 5514 5516 5517 5518 5520 5521
5366 5371 5377 5383 5388 5393 5399 5404 5409 5414 5418 5423 5427 5432 5436 5440 5445 5449 5453 5458 5462 5466 5469 5472 5475 5478 5481 5484 5487 5489 5491 5495 5497 5499 5500 5500 5502 5503 5504 5505 5507 5508 5510
5352 5358 5363 5368 5374 5379 5385 5391 5397 5402 5407 5412 5416 5421 5425 5429 5434 5438 5442 5446 5450 5454 5458 5461 5464 5467 5471 5474 5476 5479 5481 5483 5485 5487 5489 5490 5491 5491 5492 5493 5495 5496 5498
5338 5344 5350 5355 5361 5366 5372 5378 5384 5389 5395 5400 5405 5409 5414 5418 5423 5427 5431 5435 5439 5442 5446 5449 5452 5457 5461 5463 5466 5468 5470 5473 5475 5477 5478 5480 5480 5481 5482 5483 5483 5484 5485
5326 5332 5337 5343 5348 5353 5359 5365 5371 5377 5382 5388 5394 5398 5403 5408 5412 5417 5421 5424 5428 5431 5434 5437 5441 5445 5448 5452 5455 5458 5461 5463 5466 5467 5469 5470 5472 5472 5472 5472 5472 5473 5473
5315 5320 5326 5331 5336 5341 5346 5352 5358 5364 5370 5376 5381 5386 5392 5397 5401 5406 5410 5413 5416 5420 5423 5426 5429 5433 5436 5440 5443 5447 5450 5453 5456 5458 5460 5461 5461 5463 5462 5461 5461 5461 5463
5304 5309 5314 5319 5324 5329 5334 5340 5345 5351 5358 5363 5369 5375 5380 5385 5390 5394 5398 5401 5405 5409 5413 5417 5420 5423 5426 5429 5432 5435 5439 5442 5445 5447 5450 5452 5452 5452 5452 5452 5452 5451 5450
5293 5298 5303 5307 5312 5317 5322 5327 5333 5339 5346 5351 5357 5363 5368 5374 5378 5383 5387 5390 5394 5398 5402 5406 5410 5413 5417 5420 5423 5426 5428 5431 5434 5436 5438 5440 5441 5442 5441 5440 5439 5439 5439
5281 5286 5292 5296 5301 5306 5310 5315 5321 5327 5333 5340 5346 5351 5356 5362 5367 5372 5376 5380 5384 5387 5391 5395 5399 5403 5407 5410 5413 5415 5418 5420 5422 5424 5426 5427 5429 5430 5430 5431 5431 5429 5427
5270 5275 5280 5285 5289 5294 5299 5304 5309 5315 5322 5328 5334 5341 5346 5351 5356 5361 5366 5370 5373 5377 5381 5384 5388 5393 5397 5400 5403 5405 5408 5410 5411 5412 5414 5415 5416 5418 5419 5419 5420 5420 5418
5260 5265 5270 5274 5278 5284 5289 5294 5299 5304 5310 5316 5323 5329 5335 5340 5345 5350 5355 5360 5364 5367 5370 5374 5378 5382 5385 5388 5391 5394 5396 5398 5399 5401 5403 5404 5405 5406 5406 5407 5408 5408 5407
5251 5255 5260 5264 5269 5273 5278 5283 5288 5293 5299 5305 5312 5318 5324 5330 5335 5340 5345 5349 5353 5357 5360 5364 5367 5370 5373 5376 5379 5382 5384 5386 5388 5390 5392 5393 5394 5394 5394 5394 5394 5394 5393
5241 5246 5251 5255 5260 5264 5268 5273 5278 5283 5288 5295 5301 5307 5313 5319 5325 5330 5334 5338 5343 5346 5349 5353 5356 5359 5362 5365 5368 5370 5372 5375 5377 5379 5380 5381 5380 5380 5380 5381 5381 5381 5380
5232 5237 5242 5246 5250 5254 5259 5263 5268 5274 5279 5285 5292 5297 5303 5310 5315 5321 5325 5329 5333 5337 5340 5342 5344 5347 5350 5353 5355 5358 5360 5363 5365 5366 5367 5368 5368 5368 5368 5368 5368 5368 5368
5224 5229 5232 5236 5240 5245 5250 5255 5260 5265 5271 5277 5283 5288 5294 5300 5306 5311 5316 5320 5325 5328 5330 5332 5334 5337 5339 5342 5344 5346 5349 5351 5352 5354 5355 5356 5356 5357 5357 5356 5356 5356 5356
5213 5218 5223 5227 5231 5235 5240 5246 5251 5257 5262 5268 5274 5279 5285 5291 5296 5301 5306 5310 5314 5317 5319 5321 5323 5326 5329 5331 5333 5335 5337 5339 5341 5342 5343 5344 5344 5345 5345 5345 5344 5344 5343
5206 5210 5214 5218 5221 5226 5230 5236 5241 5246 5252 5258 5264 5270 5276 5281 5287 5292 5296 5300 5302 5305 5308 5310 5312 5315 5317 5320 5322 5324 5326 5328 5329 5331 5332 5333 5334 5334 5335 5334 5334 5333 5332
5200 5203 5207 5210 5214 5218 5222 5227 5232 5237 5242 5248 5255 5261 5267 5272 5277 5282 5285 5288 5291 5294 5296 5299 5302 5304 5307 5309 5312 5314 5316 5318 5319 5320 5321 5322 5323 5324 5324 5324 5324 5323 5322
5193 5197 5201 5204 5207 5211 5215 5219 5223 5228 5234 5239 5244 5251 5257 5262 5267 5270 5274 5277 5280 5283 5286 5289 5292 5294 5297 5300 5302 5304 5306 5307 5309 5310 5311 5312 5313 5313 5314 5314 5314 5313 5312
5185 5189 5193 5197 5199 5203 5207 5210 5215 5219 5224 5229 5234 5240 5247 5252 5256 5259 5263 5266 5270 5273 5276 5280 5282 5285 5288 5291 5293 5295 5296 5297 5299 5300 5301 5302 5302 5303 5304 5304 5304 5304 5303
5178 5181 5184 5188 5192 5195 5199 5203 5207 5211 5216 5220 5225 5231 5237 5241 5245 5248 5252 5256 5260 5263 5267 5270 5273 5275 5278 5281 5284 5285 5287 5288 5289 5290 5291 5292 5293 5294 5294 5294 5294 5294 5294
5171 5174 5177 5180 5183 5188 5191 5194 5197 5201 5206 5211 5216 5221 5226 5231 5234 5238 5242 5246 5250 5254 5258 5261 5264 5267 5269 5272 5274 5276 5278 5280 5281 5282 5283 5284 5285 5285 5285 5285 5286 5285 5285
5164 5166 5168 5171 5174 5178 5181 5185 5188 5193 5197 5202 5206 5211 5216 5220 5224 5228 5232 5236 5240 5244 5248 5251 5255 5258 5261 5263 5265 5268 5270 5272 5273 5274 5276 5276 5277 5277 5277 5277 5277 5277 5277
5157 5159 5161 5163 5166 5169 5173 5176 5180 5184 5188 5193 5198 5202 5206 5210 5215 5219 5223 5227 5231 5234 5238 5242 5246 5249 5252 5255 5257 5260 5262 5264 5266 5267 5268 5269 5270 5270 5269 5269 5269 5268 5267
5150 5151 5153 5155 5158 5161 5165 5168 5172 5176 5180 5185 5189 5193 5197 5201 5206 5210 5214 5218 5221 5225 5229 5233 5236 5240 5243 5246 5249 5252 5254 5256 5258 5259 5260 5261 5262 5261 5261 5261 5260 5260 5258